星链-31467 (STARLINK-31467 )

导读

STARLINK-31467是美国SpaceX公司星链星座的一颗第二代小型通信卫星,于2024年3月16日由猎鹰九号运载火箭从肯尼迪航天中心发射升空,属于G6-44批次任务。作为低轨宽带卫星,它采用Ku/Ka波段通信技术,单星通信容量达165Gb/s,配备氪基霍尔推进器,具备自主避撞能力,旨在为全球提供覆盖广泛的高速卫星互联网接入服务,目前已进入预定近地轨道运行。

基本信息
目录编号:
59235
目录名称:
STARLINK-31467
国际标识:
2024-049E
轨道中心:
EARTH
卫星名称:
星链-31467
卫星全名:
星链-31467 (STARLINK-31467 )
卫星状态:
在轨 (已飞行903 天)
发射日期:
2024-03-16 UTC
国别 :
美国 (US)
星等 :
--
轨道信息
数据来源 国际轨道数据
星历时间: 2026-09-05T13:20:14+0800
7小时前
查看轨道信息
半长轴: 6861.204km
偏心率: 0.0001246
轨道倾角: 43.003°
近地点辐角 277.560°
升交点赤经 209.603°
平近点角 82.511°
近地点: 482.212km
远地点: 483.922km
周期: 94.267分钟
每日圈数: 15.275743
详细信息
固有亮度:
5
最大亮度:
0.3
卫星平台:
Starlink v2.0 mini
覆盖范围:
全球
运营商:
太空探索技术公司
运营商所在国:
美国
制造商(研发单位):
太空探索技术公司
制造商所在国:
美国
使用方式:
暂无
卫星简介
星链(Starlink)计划是由太空探索技术公司(SpaceX)提出的一个巨型低轨卫星互联网星座项目,计划在2019年至2024年间在太空搭建由约1.2万颗卫星组成的“星链”网络,其中1584颗将部署在地球上空550千米处的近地轨道,并从2020年开始工作。该卫星仍在工作。
2D轨道图
3D轨道图
轨道高度分析图
轨道倾角分析图
轨道综合分析图
查看轨道综合分析图
交会数据列表
事件ID 空间交会对象 最接近时刻(TCA) 交会距离 交会风险概率(CRP) 交会风险指数(CRI) 操作
CDM_260905-213005-923506-419921
SJ-26 (64199)
2026-09-05T
21:30:12+0000
1.845 km
极远距离
3.265456E-6 低风险 0.45
CDM_260906-144505-288205-923523
2026-09-06T
14:45:47+0000
2.097 km
极远距离
1.599458E-6 低风险 0.39